COSMOS 2251 DEB

Satellite information

Favourite Embed

Satellite Type and Status

DEBRISIN ORBIT

Key statistics

Satellite COSMOS 2251 DEB at a glance.

Uptime

11869

Days in orbit

Revolutions

≈ 14.5

Per day

Orbit

LEO

Low Earth Orbit

Inclination

74.1

Latest

Satellite identification and parameters

Extended collection of information and parameters for COSMOS 2251 DEB.

Object identification

Identified? True

Debris? True

Object name: COSMOS 2251 DEB

International designator: 1993-036APR

Object number (NORAD): 35674

Object ID (CCSDS): 35674

Country: COMMONWEALTH OF INDEPENDENT STATES (CIS)

Current information (Y/N): Y

RCS size: SMALL

Orbital parameters

Period: 99.024 minutes

Inclination: 74.0603 deg

SMA: 7090.145 km

Apoapsis: 780.103 km

Periapsis: 643.917 km

RAAN: 318.0374 deg

Eccentricy: 0.0096039

Argument of periapsis: 3.0117 deg

Mean anomaly: 357.1602 deg

Mean motion: 14.54186406 rev/day

Mean motion (dot): 0.00013236 rev/day2

B* drag term: 0.0029421 1/REarth

Two-line elements (TLE)

Creation date: Dec. 12, 2025, 7:06 a.m.

Reference frame: TEME

Reference center: EARTH

Epoch: Dec. 11, 2025, 10:20 p.m. UTC

TLE line 0: 0 COSMOS 2251 DEB

TLE line 1: 1 35674U 93036APR 25345.93071988 .00013236 00000-0 29421-2 0 9995

TLE line 2: 2 35674 74.0603 318.0374 0096039 3.0117 357.1602 14.54186406860997

Live tracking on map

Real-time ground track for satellite COSMOS 2251 DEB.

In-orbit conjunctions

A list of the most updated potential collisions computed for object COSMOS 2251 DEB.

Target Orbit TCA Probability of collision Miss distance Type
COSMOS 1275 DEB LEO 2025-09-12 05:15:49 0.000197523 222.0 (m) DEBRIS
DMSP 5D-2 F13 DEB SSO 2025-05-19 02:16:07 0.0001942254 190.0 (m) DEBRIS
COSMOS 1777 LEO 2025-02-19 17:56:34 0.0002870686 226.0 (m) PAYLOAD

Associated space launch

Military communications satellite. Destroyed in a collision with Iridium 33.

COSMOS 2251 DEB was lifted into orbit during the mission ‘Kosmos-3M | Strela-2M 51’, on board a Kosmos-3M space rocket.

The launch took place on June 16, 1993, 4:17 a.m. from 132/1 (132L).

For more information about the launch, click the button.

Launch to space Kosmos-3M | Strela-2M 51
Kosmos-3M | Strela-2M 51

Agency: N/A

Status: Launch Successful

Launch date: June 16, 1993, 4:17 a.m. UTC

Rocket: Kosmos-3M

Launch pad: 132/1 (132L)

Location: Plesetsk Cosmodrome, Russian Federation

...

Latest news about this satellite

There are no fresh news available about this satellite. Check back as we update our databases every day.


Newsletter sign-up

Weekly statistics, charts and insights to help you stay on top of the space industry.